Location: Quaker Farms
(41.4276°N, 73.1557°W)
Time: 19:39:16
(UTC+00:00)

S-56A Canister/Altair - Pass Details

Date: 15 June 2021
Orbit: 631 x 2501 km, 38.9° (Epoch: 30 July)

Event Time Altitude Azimuth Distance (km) Brightness Sun altitude
Rises 08:59:40 0° 198° (SSW) 2,910 10.0 -3.7°
Reaches altitude 10° 09:03:10 10° 168° (SSE) 2,012 9.5 -3.2°
Maximum altitude 09:05:08 13° 142° (SE) 1,882 9.6 -2.9°
Drops below altitude 10° 09:07:12 10° 115° (ESE) 2,135 10.3 -2.6°
Sets 09:11:10 0° 88° (E) 3,284 11.9 -2.0°
